Theta_e
314 314 314 314 314 314 314 314 314 314 314 314 314 314 314 316 317 318 318 318 318 316 315 316 316 316 315 315 315 315 314 314 313 313 313 313 312 312 312 312 312 313 313 315 316 316 316 316 318 320 321 322 323 324 325 326 327 329 330 331 331 331 331 331 331 331 331 331 331 332 332 332 332 332
314 314 313 313 313 313 313 313 313 313 313 313 313 313 313 313 314 316 316 316 315 315 315 315 314 314 314 314 314 314 314 313 313 313 313 313 313 312 313 313 312 312 313 313 313 313 312 312 313 313 314 315 315 317 318 319 322 325 327 328 328 329 329 329 330 330 330 330 330 331 331 331 331 332
313 313 312 312 312 312 312 312 312 312 312 312 312 312 312 312 313 313 314 315 314 313 313 313 313 313 313 313 313 313 313 313 313 313 313 314 314 314 314 314 314 314 313 314 314 314 313 313 313 312 311 310 310 310 310 311 315 321 324 325 325 326 327 328 328 329 329 330 330 330 331 331 331 332
312 311 311 311 311 311 311 311 311 311 311 311 311 311 311 311 312 312 313 314 313 312 312 312 312 312 312 312 312 312 313 313 313 313 313 313 313 313 313 313 313 313 313 313 314 314 314 314 314 313 313 312 311 310 310 311 313 317 320 321 322 323 324 326 327 328 329 329 330 330 331 331 331 331
311 311 311 311 310 310 310 310 310 310 310 310 310 310 310 310 311 311 311 312 312 311 311 311 311 311 311 311 311 311 311 311 311 311 311 311 311 311 312 312 313 313 314 313 313 313 313 313 313 313 313 313 312 312 312 312 313 314 316 318 319 321 322 323 324 326 327 328 329 330 331 331 331 331
311 310 310 310 310 309 309 309 309 309 309 310 310 310 310 310 310 310 311 311 311 311 311 311 311 310 310 310 310 310 310 310 310 310 310 310 311 311 312 312 313 313 314 314 314 314 313 313 313 313 313 313 313 313 312 312 313 314 315 317 319 319 320 320 321 322 323 324 325 327 328 330 331 331
310 309 309 309 309 308 308 309 309 309 309 309 310 310 310 310 310 310 310 310 311 311 310 310 310 310 310 309 309 309 309 309 309 310 310 310 310 311 311 311 312 313 313 313 314 314 314 314 314 314 313 313 314 313 313 313 313 313 314 315 315 315 315 315 317 319 321 321 321 322 324 326 328 330
309 309 308 308 308 308 308 308 308 309 309 309 309 309 309 309 309 309 309 309 309 309 309 309 309 309 309 309 309 309 309 309 309 309 309 309 309 310 310 311 311 312 312 312 312 313 313 314 314 314 314 314 314 314 314 314 314 314 314 314 314 314 313 312 311 312 317 320 321 320 320 322 323 326
309 308 308 308 308 308 308 308 308 308 309 309 309 309 309 309 308 308 308 308 308 308 309 309 308 308 308 309 309 309 309 309 309 309 309 309 310 310 310 310 310 310 310 310 311 311 312 313 313 314 314 315 316 315 315 315 315 315 315 315 314 314 313 312 310 309 311 316 320 321 320 320 320 321
308 308 308 308 308 308 308 308 308 308 308 308 308 308 308 308 308 308 307 307 307 307 308 308 308 308 308 309 309 309 309 309 309 309 309 309 309 308 308 308 309 309 309 309 310 310 311 312 313 314 314 315 316 316 316 316 316 317 317 317 316 315 315 314 313 311 310 311 315 320 321 320 319 319
308 307 307 307 307 308 308 307 307 307 307 307 307 307 306 307 307 307 307 307 307 307 307 307 307 307 308 308 308 308 308 308 308 308 308 308 307 307 307 307 307 307 308 308 309 310 311 311 312 312 313 313 314 315 315 315 316 317 318 319 319 319 319 319 318 317 314 312 312 314 318 321 321 319
307 307 307 307 307 307 306 306 305 305 305 305 305 305 304 304 305 305 305 306 306 306 306 306 306 306 307 307 307 307 307 307 307 307 306 306 306 306 306 305 305 306 306 307 308 308 309 309 309 309 310 311 312 313 313 314 315 316 317 319 319 320 321 321 322 323 321 319 316 313 314 317 321 321
307 307 307 307 307 306 305 304 304 303 303 303 303 303 302 302 303 303 303 304 304 304 304 305 305 305 306 306 306 306 306 306 306 305 305 305 305 305 304 304 304 305 305 305 305 306 306 306 306 307 308 309 309 310 310 311 313 314 314 316 317 318 319 319 320 323 325 324 322 318 313 314 318 320
306 306 307 306 306 306 305 304 303 303 302 302 302 301 301 300 301 301 302 302 303 303 303 304 304 304 305 305 305 305 305 305 305 305 304 304 304 304 304 304 304 304 304 304 304 304 304 304 305 305 306 307 308 309 309 310 311 312 313 314 315 315 316 317 317 320 324 325 323 319 314 313 316 319
306 306 306 306 305 305 304 304 304 303 302 302 301 301 300 300 300 300 301 302 302 302 302 303 303 303 304 304 304 304 304 304 304 304 304 304 304 304 303 303 303 303 303 303 303 303 303 304 304 305 306 307 308 309 310 311 312 312 313 314 315 315 315 316 317 319 323 325 325 323 321 321 322 324
306 306 305 305 305 304 304 304 303 303 303 303 302 301 301 301 301 300 301 301 301 301 302 302 302 303 303 303 303 304 304 303 303 303 303 303 303 302 302 302 303 302 302 302 303 303 304 304 305 306 307 308 309 310 311 311 312 313 314 315 316 317 318 318 318 320 323 325 326 326 326 326 327 328
306 305 305 304 304 304 304 304 303 303 303 303 302 302 301 302 302 302 301 301 301 301 302 302 302 302 303 303 303 303 302 302 302 302 302 301 301 301 301 302 302 302 302 303 303 304 304 305 306 307 308 309 310 310 312 314 316 317 318 318 319 320 322 321 320 322 325 326 325 325 325 326 327 328
305 305 304 304 304 304 304 304 303 303 302 302 301 301 301 303 304 304 303 302 302 302 301 302 302 303 303 303 302 302 301 301 301 301 301 301 301 301 301 301 302 302 303 303 304 305 305 306 307 308 309 309 310 312 314 317 318 319 319 320 321 322 323 324 324 325 326 325 325 324 324 326 327 328
304 304 304 304 304 304 304 304 303 302 302 301 300 300 302 303 304 304 304 303 303 303 302 302 302 302 302 302 302 302 301 301 301 301 301 301 301 301 302 302 302 303 303 304 305 306 306 307 307 309 309 310 312 314 316 316 317 317 318 318 319 321 322 323 324 325 325 325 325 325 325 325 327 327
304 304 304 304 304 304 303 303 303 302 301 300 299 300 302 304 304 304 304 304 304 303 303 301 300 300 301 301 302 302 301 301 301 301 301 301 301 302 302 303 303 304 303 304 305 306 306 307 307 308 309 310 313 315 315 314 313 313 314 314 316 317 319 320 321 322 323 323 323 324 324 325 325 326
304 304 304 304 304 303 303 303 302 302 301 300 299 300 302 303 304 305 305 304 302 302 301 298 297 300 302 302 302 302 301 301 301 300 300 301 302 302 303 303 304 304 304 304 304 304 305 305 305 307 308 310 313 314 312 311 311 310 310 311 312 313 314 315 317 318 319 321 321 321 321 321 322 323
305 305 305 305 304 303 303 303 302 302 301 298 298 300 301 301 302 304 304 302 301 301 298 296 298 302 304 304 304 304 303 302 301 300 300 301 302 302 303 304 304 303 303 304 303 303 303 303 304 305 307 309 313 313 312 311 311 309 308 308 308 309 310 311 313 315 317 319 318 315 313 313 315 318
305 305 305 305 304 303 303 302 302 302 299 295 294 296 298 299 300 302 303 302 301 298 294 296 301 304 304 305 305 305 304 303 302 302 302 302 302 302 303 304 303 303 303 303 303 302 303 303 303 304 306 308 312 313 312 311 311 310 308 308 308 307 307 307 308 310 312 313 312 311 310 308 309 311
306 305 305 305 304 303 302 301 301 299 296 293 291 291 293 297 300 302 301 299 295 292 292 298 303 303 304 305 305 305 305 304 303 303 303 303 303 303 303 303 303 303 303 302 302 301 302 302 303 304 306 308 310 311 310 309 310 310 309 309 308 307 305 304 304 305 305 307 308 309 309 307 306 307
306 306 305 306 305 303 302 301 300 299 296 293 290 288 290 293 297 297 295 292 291 293 297 301 302 302 304 305 304 304 305 304 303 303 303 303 303 303 303 303 302 302 302 302 301 301 301 302 303 304 305 307 308 310 309 307 306 306 307 307 306 305 304 303 302 302 302 302 304 305 306 306 305 305
306 305 305 306 305 303 303 302 301 300 297 292 289 288 288 290 291 290 290 292 295 299 300 301 301 302 303 304 303 304 304 303 303 303 303 303 303 303 303 303 302 301 301 300 300 300 301 302 303 304 305 306 308 309 309 306 304 304 304 304 303 302 302 302 301 300 300 299 300 300 301 302 302 301
305 305 305 305 304 303 302 301 300 298 294 290 288 288 288 288 288 289 292 296 299 300 300 301 301 302 302 302 303 303 303 303 304 304 303 303 303 303 303 302 301 301 301 300 299 299 300 301 302 303 305 306 308 310 309 305 303 303 302 301 300 300 300 300 299 299 299 299 299 299 299 299 299 299
303 303 303 303 302 302 301 300 300 298 293 289 287 288 288 288 288 291 295 298 299 299 300 301 301 301 301 302 303 303 302 303 304 303 303 303 303 303 303 302 301 301 301 300 299 299 300 301 303 304 305 307 307 308 306 304 303 301 300 299 298 298 298 298 298 297 297 298 298 299 298 298 297 297
301 301 301 301 301 300 300 300 300 298 293 289 288 288 290 290 291 294 297 299 299 299 300 300 300 300 300 301 302 302 302 303 304 303 303 303 303 302 303 302 301 300 301 300 300 300 301 302 304 304 305 305 305 304 303 302 301 301 300 298 297 296 296 296 296 295 295 295 295 295 294 294 294 295
299 299 299 299 299 300 300 299 298 294 291 290 291 291 292 293 294 296 298 298 298 298 298 299 300 299 299 300 301 302 302 304 304 303 303 303 302 302 303 302 301 300 300 300 300 300 301 302 304 304 303 302 302 301 300 300 299 299 299 298 297 296 295 294 293 293 292 292 292 291 291 291 292 292
296 296 296 297 297 298 297 296 293 290 288 290 291 291 293 295 296 297 298 297 296 296 298 299 299 299 299 300 301 301 303 304 304 303 303 303 302 302 302 302 301 300 299 299 300 300 301 302 303 303 301 300 300 299 299 298 297 297 297 296 296 295 294 293 292 291 291 291 291 290 290 291 291 291
292 292 293 294 294 294 293 291 289 288 288 290 291 293 295 297 297 298 298 297 296 298 299 299 298 299 299 300 300 301 302 303 304 304 303 303 302 302 302 301 301 300 300 299 298 299 300 301 301 301 300 299 298 298 297 297 296 296 295 295 295 294 294 293 292 290 291 291 291 290 289 289 289 289
292 292 293 295 295 293 292 291 290 290 291 293 295 296 297 298 297 298 298 297 298 299 299 298 298 299 299 299 300 301 302 303 304 303 303 303 302 302 302 301 300 300 300 299 298 298 298 298 298 299 298 298 297 297 297 296 295 295 294 294 294 293 293 292 292 291 291 291 290 288 288 288 288 288
293 295 296 298 298 296 295 295 295 295 296 297 298 299 299 298 297 297 297 297 298 298 297 297 298 299 298 299 300 300 301 302 303 303 303 303 302 302 301 300 299 299 299 300 299 299 299 298 297 297 296 296 296 295 296 296 295 294 294 294 293 293 292 292 292 292 292 292 291 289 288 288 288 288
294 297 300 299 299 299 298 299 299 299 299 299 299 299 299 299 298 297 297 297 297 297 297 298 298 298 298 299 299 300 300 301 302 303 303 302 302 301 301 300 300 299 299 299 299 299 300 300 299 297 296 295 295 294 294 295 295 295 294 294 293 293 292 292 292 292 292 291 291 290 288 287 288 288
295 298 298 297 297 299 300 300 299 299 299 299 299 298 298 299 298 297 297 297 296 296 297 298 298 298 298 299 298 299 300 301 301 302 303 302 302 301 300 300 300 300 299 298 298 298 299 299 299 297 295 294 294 293 292 294 295 296 295 294 293 293 293 292 292 291 291 291 290 289 288 287 287 288
296 297 295 293 295 297 299 299 298 298 298 298 297 297 298 298 297 297 297 296 295 295 296 297 297 297 297 298 298 299 300 301 301 301 302 302 302 301 301 300 300 299 298 298 297 297 298 298 298 296 295 294 293 292 291 292 295 296 295 295 294 293 293 292 292 292 291 290 290 289 288 287 287 287
296 295 293 293 294 296 297 298 298 297 296 296 296 297 297 297 297 297 296 295 295 296 296 297 298 297 297 298 298 298 300 301 300 300 301 302 302 302 301 301 300 299 297 297 296 296 297 297 296 296 295 294 293 292 290 290 290 292 294 295 295 294 294 293 293 292 292 291 290 289 288 288 287 287
295 293 292 293 294 296 296 297 296 296 296 295 295 296 296 296 296 296 295 295 296 296 296 297 298 297 296 297 298 297 299 301 301 300 300 300 300 300 300 300 300 298 297 296 296 296 297 297 296 295 295 293 292 291 289 287 287 289 293 295 295 296 295 294 294 293 292 291 290 289 288 288 288 288
294 292 292 293 294 296 296 296 295 295 295 295 295 295 295 295 295 295 295 295 295 295 295 297 297 295 295 298 298 297 298 300 300 300 299 298 299 299 299 299 300 299 298 297 296 295 296 296 295 295 294 293 291 290 289 288 287 288 290 292 293 295 295 295 295 293 292 290 290 289 288 288 289 289
292 291 292 294 295 296 296 295 295 295 295 295 294 294 295 296 296 295 295 295 295 294 295 296 296 295 297 298 298 297 298 298 299 300 299 297 297 298 299 299 299 299 299 298 297 296 296 295 294 294 293 292 292 291 290 289 288 287 287 288 290 292 294 294 295 294 293 292 291 291 290 290 291 291
291 291 291 293 295 296 296 296 295 295 295 295 294 294 295 295 295 295 296 295 295 294 295 296 297 296 297 297 296 296 297 297 298 299 299 297 297 298 299 299 299 299 299 299 298 297 296 295 294 294 293 293 294 293 291 290 289 287 287 286 287 288 290 291 292 293 293 293 293 292 292 292 292 291
293 292 292 292 294 295 296 296 296 295 295 295 295 295 295 295 295 295 295 294 293 293 294 295 296 295 296 296 296 296 297 297 297 298 299 298 298 298 298 298 298 298 298 298 298 297 297 296 296 296 295 294 295 294 292 290 290 289 288 288 287 287 287 288 289 290 291 291 291 292 293 293 292 290
295 294 294 293 294 295 296 296 296 296 295 295 295 296 295 295 295 296 295 293 293 294 295 295 295 295 295 295 296 296 296 297 297 297 298 298 298 298 298 298 298 297 297 297 297 297 296 296 296 296 295 295 294 294 293 292 291 291 290 289 288 287 287 287 287 288 288 288 288 289 289 290 289 288
296 296 296 296 296 296 296 296 296 296 296 296 295 296 296 296 296 296 295 294 294 295 294 294 294 295 294 294 294 295 296 296 296 296 296 296 296 296 297 297 297 297 296 296 296 296 295 295 295 295 294 294 293 293 293 292 292 292 291 290 289 288 287 287 287 288 288 287 287 287 287 287 287 286
Wind_Speed
8 8 8 8 9 9 8 8 9 9 7 7 10 12 11 8 5 3 3 4 5 10 12 13 14 15 17 19 18 17 18 20 22 22 19 18 18 17 17 18 19 20 21 22 23 24 26 27 28 28 29 28 27 25 25 24 24 23 22 22 23 24 24 25 25 24 24 24 24 25 25 25 26 27
7 7 7 8 9 9 9 9 10 9 8 8 9 10 10 10 8 5 3 4 7 11 13 13 15 18 20 20 19 19 21 23 24 23 23 22 21 20 19 19 20 22 23 24 26 28 28 28 29 29 31 31 31 30 29 28 26 25 24 23 24 24 25 25 26 26 26 25 25 25 25 25 25 26
6 6 6 7 8 8 9 9 8 8 9 9 10 10 10 10 10 10 7 4 7 12 14 15 17 18 19 19 19 19 20 20 21 21 21 19 19 19 19 19 20 21 23 24 25 25 24 24 25 25 26 27 28 29 29 30 28 27 25 24 24 24 24 25 26 26 26 26 26 25 25 26 25 26
6 6 6 6 7 8 9 9 7 7 9 9 10 11 12 11 11 12 11 6 7 14 16 16 16 15 16 17 18 18 17 17 17 18 18 18 19 20 20 21 20 20 21 21 22 23 23 24 24 23 23 23 23 23 24 25 26 27 26 25 24 23 23 23 24 25 26 26 26 26 25 26 26 26
5 5 6 6 6 7 8 8 8 8 9 8 9 10 11 12 11 12 13 9 8 13 15 14 15 15 15 16 16 17 18 18 18 18 19 19 19 19 20 20 19 19 19 20 21 22 22 22 22 22 21 21 22 22 22 23 24 26 26 26 26 25 24 23 23 24 25 25 25 25 25 25 25 26
5 4 5 6 6 6 7 8 8 9 9 9 10 10 10 12 12 11 13 11 9 12 14 16 17 16 16 17 17 17 19 19 19 19 18 18 18 18 18 19 19 18 19 20 20 20 19 19 20 22 23 23 23 23 23 24 24 26 26 27 27 27 27 26 25 25 25 25 24 24 25 25 25 25
5 5 5 6 7 7 8 9 9 9 10 9 10 11 11 13 14 13 14 14 12 12 14 16 16 16 18 19 18 18 18 18 18 18 17 17 17 18 19 19 19 18 20 21 20 18 18 18 19 20 22 23 24 24 24 24 25 26 27 28 29 30 30 30 29 28 27 26 25 24 24 24 24 25
6 6 6 6 6 7 7 8 9 8 8 8 8 10 11 11 13 14 15 15 14 13 13 14 15 17 18 19 18 18 18 17 16 17 17 17 16 16 17 17 18 18 20 22 21 20 19 17 18 19 19 20 22 22 22 22 23 24 25 27 28 29 30 30 31 31 31 29 27 25 24 24 23 24
7 7 7 7 6 6 7 7 8 8 8 8 8 9 10 11 12 13 14 15 15 14 13 14 15 16 17 17 17 17 17 17 18 17 17 16 15 16 18 18 19 20 21 23 24 24 22 19 18 20 20 21 21 20 20 21 22 23 25 26 27 28 28 29 30 31 32 32 30 28 26 25 23 23
7 7 7 8 8 7 7 6 5 6 6 5 5 7 9 10 10 11 12 12 13 14 13 13 14 14 15 15 16 16 15 17 18 18 17 17 17 18 20 20 20 19 20 22 23 23 22 21 19 20 20 19 18 17 18 20 21 23 25 26 27 27 28 28 28 28 29 31 31 31 28 26 25 24
6 6 6 7 6 5 4 2 2 3 4 3 3 4 7 9 10 10 10 11 11 12 12 12 12 13 14 14 15 15 14 15 16 17 18 19 19 19 19 21 22 21 21 22 21 20 20 20 20 21 21 20 17 17 18 19 19 20 22 21 21 22 23 24 26 27 28 28 30 31 30 29 27 26
6 7 6 5 4 3 3 3 4 5 5 5 4 3 5 9 11 10 10 11 11 10 11 11 11 13 14 13 14 14 14 15 15 16 18 19 20 20 20 21 22 22 22 22 22 21 21 23 24 24 25 24 22 22 22 21 20 20 21 19 19 20 20 21 23 24 26 28 28 29 30 30 29 28
6 7 6 5 4 5 7 8 8 7 6 6 5 5 5 7 9 10 9 10 10 9 10 10 10 12 12 12 14 14 14 14 15 16 17 17 19 21 22 21 20 19 20 22 23 22 22 24 26 25 25 25 24 24 24 22 21 22 24 23 22 21 20 20 22 24 24 24 26 26 27 28 28 28
6 6 7 7 6 6 7 8 7 5 4 4 5 5 5 5 7 7 8 8 8 8 8 9 9 10 10 11 13 13 13 14 14 15 16 16 18 19 19 19 18 17 19 22 24 24 23 24 25 25 24 23 23 24 23 21 21 23 24 23 23 24 23 23 23 24 22 20 20 21 22 24 25 26
6 6 7 6 7 7 6 6 5 4 4 4 4 4 3 4 5 5 5 6 7 7 7 8 8 8 9 10 12 13 13 13 14 15 15 15 16 16 15 16 17 18 20 23 24 24 23 23 23 24 23 23 24 24 24 24 24 24 23 22 23 24 26 26 24 22 20 17 15 15 17 18 20 23
6 6 6 6 6 6 5 5 5 5 6 5 5 5 5 6 7 7 7 6 6 5 5 6 7 7 8 9 11 12 13 13 14 14 14 14 14 14 14 14 18 21 23 23 22 23 25 23 23 25 24 24 24 23 23 24 25 26 25 25 24 23 22 24 22 19 16 15 14 14 15 16 19 21
6 6 6 7 6 6 5 5 4 5 5 5 5 7 9 10 10 10 10 8 7 6 6 6 6 6 7 9 11 11 12 14 13 11 12 13 13 14 14 16 21 24 24 22 21 22 24 23 22 23 23 24 23 20 19 20 20 20 21 20 21 19 17 18 19 17 15 15 15 16 16 17 18 20
6 6 7 7 6 6 6 5 5 4 3 5 6 8 12 13 11 8 9 9 9 10 10 10 8 7 9 11 13 12 11 11 11 9 11 12 12 14 15 17 22 23 22 21 18 17 20 22 21 22 23 24 21 15 14 16 16 17 17 17 17 15 13 14 15 14 15 15 17 18 18 18 18 18
7 7 7 7 6 6 7 7 7 6 6 8 8 8 11 12 8 7 9 10 10 9 9 10 10 11 14 15 15 12 10 9 9 9 10 11 12 14 15 16 19 19 18 19 16 15 18 20 20 21 24 25 19 10 9 15 17 17 16 15 14 13 11 11 11 12 14 15 15 16 16 16 16 16
7 8 8 8 7 7 9 9 8 7 7 8 8 8 9 9 7 8 10 10 7 6 7 9 11 13 14 14 14 14 12 11 9 8 10 11 12 13 13 15 17 18 18 18 16 15 17 19 21 22 24 26 17 7 11 17 18 18 18 17 15 13 11 11 11 13 14 14 14 13 13 13 13 12
8 9 9 9 8 9 11 11 9 8 7 7 6 7 8 8 8 8 6 4 3 5 10 14 14 11 12 14 15 15 14 13 12 11 12 12 11 11 11 12 16 20 19 16 16 17 16 19 22 22 24 23 14 11 17 20 20 21 23 23 22 19 17 15 13 12 12 13 12 9 6 5 5 6
10 11 11 10 10 10 12 11 9 8 7 6 5 6 7 8 9 7 3 4 6 10 14 15 12 8 10 14 16 14 12 12 13 14 13 11 10 10 10 10 15 20 17 13 16 17 16 17 20 21 22 19 11 13 15 14 16 21 25 28 29 28 28 25 21 17 12 8 8 11 11 11 11 13
13 13 13 14 13 12 12 11 10 9 9 8 7 7 7 8 9 8 8 9 13 16 15 11 9 9 11 14 14 10 8 8 10 10 8 8 9 10 11 12 12 12 11 13 17 17 16 17 17 17 16 12 9 11 12 10 12 16 20 22 25 27 30 32 32 29 23 17 17 18 19 21 24 26
15 15 16 17 17 15 13 11 11 10 10 10 10 9 9 9 10 12 13 14 14 14 11 9 10 13 13 12 11 6 3 4 3 1 4 7 8 9 11 12 11 9 11 16 18 16 15 16 15 14 13 9 8 10 12 14 14 15 16 17 19 21 24 29 33 35 33 28 23 21 21 23 25 29
12 14 17 19 19 17 14 12 10 10 10 11 12 11 10 11 13 15 15 13 11 9 9 10 13 14 11 8 8 5 3 5 4 5 6 6 6 7 9 11 11 12 14 16 16 15 15 15 13 15 14 10 12 12 8 16 19 19 19 19 20 21 21 24 27 30 33 33 30 27 23 20 20 22
7 8 12 16 17 16 14 11 10 10 12 13 13 12 11 12 12 12 11 8 7 6 9 12 12 10 8 6 5 6 5 5 5 5 4 3 5 7 8 8 8 11 17 19 15 12 13 14 13 14 14 12 15 13 5 13 17 19 21 21 22 23 22 23 25 26 28 31 31 30 28 24 22 22
4 3 6 10 13 13 11 9 9 10 13 14 14 12 11 10 9 8 6 5 6 8 10 12 11 8 7 6 5 5 6 5 4 3 4 4 6 8 7 6 8 13 21 24 16 8 9 11 12 14 16 15 15 10 5 10 12 17 21 23 24 24 23 24 26 26 26 27 27 27 28 28 28 26
5 3 3 6 9 9 8 8 9 12 14 15 13 11 8 6 7 6 5 6 8 10 11 11 9 6 6 6 5 5 6 2 3 6 7 7 7 8 5 5 9 15 21 24 16 6 4 6 8 9 10 9 8 7 8 11 12 14 17 21 24 24 23 24 26 26 26 26 26 26 27 28 28 28
9 7 5 5 7 7 8 9 12 15 16 14 11 8 6 5 6 6 6 8 9 10 10 9 7 5 6 5 5 7 6 1 4 8 10 8 7 7 5 6 10 15 20 23 17 6 3 3 3 7 12 13 13 14 12 12 14 13 13 18 22 23 23 23 25 27 28 29 30 31 32 31 31 31
15 13 12 11 10 10 11 13 14 16 15 13 10 8 7 7 7 6 7 9 8 8 7 7 6 6 6 5 5 8 6 1 4 8 8 5 7 8 6 6 10 15 19 22 18 11 5 2 4 11 18 18 18 18 16 15 17 16 15 16 16 17 20 21 23 27 29 31 33 34 34 34 34 34
19 17 16 16 15 14 15 16 16 15 14 14 12 10 9 9 7 6 7 8 7 7 6 6 6 5 6 6 6 8 5 3 6 6 6 7 7 7 5 4 6 11 17 20 19 15 11 9 10 14 19 20 20 19 19 19 19 18 18 19 18 17 17 20 23 26 28 32 34 35 35 35 35 34
21 19 18 17 16 15 15 16 15 15 14 13 13 12 12 11 8 7 9 9 7 6 5 5 5 5 6 7 6 6 5 2 7 5 6 9 7 4 4 5 4 5 10 17 21 20 17 15 14 15 19 20 19 18 20 21 20 18 19 21 23 21 19 20 23 24 26 32 35 34 34 35 34 33
17 16 16 15 14 13 13 13 13 13 13 13 13 13 13 12 10 9 10 9 9 7 5 4 5 5 6 7 5 5 5 1 7 6 7 9 6 3 4 5 4 5 6 10 16 21 22 21 20 20 22 23 21 19 20 21 20 19 19 19 20 21 20 21 22 22 26 32 35 33 32 32 32 32
15 15 17 15 13 12 13 13 14 16 17 18 17 16 15 13 10 10 8 7 7 6 4 4 5 4 5 6 4 5 5 1 6 8 8 8 6 5 6 6 5 5 5 5 6 9 13 17 20 22 23 25 26 25 23 21 19 19 18 18 20 22 22 23 24 24 26 29 31 31 30 29 29 29
18 17 17 16 15 15 16 17 18 18 18 17 15 14 14 12 10 9 8 7 6 5 4 5 4 4 5 5 4 4 6 5 2 8 10 8 7 8 8 7 5 5 5 5 4 2 2 4 9 13 16 18 22 23 22 21 19 17 17 18 18 20 21 22 23 25 25 26 28 30 28 26 26 27
20 17 14 14 15 16 17 18 17 15 12 12 10 10 11 10 9 8 8 8 8 6 5 5 4 3 4 3 3 4 6 8 6 3 10 10 9 10 11 9 8 6 5 5 4 4 4 3 7 11 10 9 10 11 15 17 17 16 16 17 17 18 19 19 19 20 21 22 24 27 26 24 24 24
20 17 15 15 17 16 15 15 14 12 10 9 8 9 9 8 7 8 8 8 8 6 5 5 5 4 3 2 3 6 6 6 8 5 4 10 12 13 13 12 11 9 8 7 4 4 7 8 11 13 10 7 5 4 8 14 16 16 15 16 16 16 16 16 17 17 17 18 20 22 23 23 23 23
19 17 16 17 18 18 14 11 11 11 11 10 9 9 9 8 7 8 8 7 6 6 7 6 5 4 4 3 3 4 4 3 5 7 5 4 8 10 13 15 15 12 12 12 9 6 9 11 12 12 10 7 5 3 4 9 14 15 12 11 11 11 11 13 15 15 14 15 16 19 21 23 24 24
19 18 18 18 19 18 14 11 10 11 11 12 12 10 10 10 9 8 7 7 7 8 7 6 4 5 4 3 3 3 3 3 3 4 5 7 7 6 8 14 17 16 17 17 14 12 12 12 12 13 14 13 11 11 13 15 16 16 12 9 8 8 9 10 12 13 13 15 17 21 23 23 23 22
20 19 18 19 19 18 15 13 12 12 13 14 13 12 11 11 11 10 9 9 9 8 8 6 4 5 5 4 3 2 2 3 2 3 4 4 5 7 7 6 11 17 19 17 16 14 14 15 16 17 19 21 21 21 23 22 20 20 18 14 9 8 8 8 9 11 13 15 18 21 21 18 14 12
22 22 21 20 18 17 17 16 14 14 15 15 14 14 13 12 11 11 11 11 10 8 7 6 6 5 4 4 4 4 2 2 2 3 3 1 1 4 5 6 5 14 18 17 16 12 11 14 17 18 21 23 21 19 18 16 15 18 22 22 17 12 9 8 7 9 11 12 12 13 14 11 9 9
23 23 23 22 19 17 17 17 16 15 15 15 15 15 14 12 11 11 12 12 11 10 8 7 6 6 4 3 4 5 3 1 1 2 2 2 3 4 4 6 5 9 12 15 17 13 11 14 16 15 17 17 14 13 14 13 13 15 19 22 22 20 17 14 11 10 10 11 10 8 8 8 8 10
23 23 22 22 21 19 17 17 17 17 16 15 15 15 14 14 13 12 12 12 11 11 10 7 6 7 6 4 4 5 5 4 3 2 2 3 4 4 2 5 7 9 9 11 14 14 14 15 14 11 11 10 7 11 16 17 15 14 13 15 19 20 21 21 20 18 17 15 12 9 7 8 8 9
21 23 22 20 20 20 18 17 17 17 16 15 15 15 14 14 14 12 11 11 11 11 11 9 7 7 8 6 5 6 6 5 4 4 3 3 4 5 5 4 7 9 10 10 12 13 13 11 10 9 9 9 10 13 16 17 16 14 12 12 14 15 17 21 23 23 23 23 22 18 15 14 15 15
19 20 21 20 19 19 18 17 17 17 16 15 15 15 15 14 14 11 10 11 12 11 11 10 8 7 8 8 7 7 8 8 6 6 6 5 4 6 6 5 6 8 8 8 10 11 10 10 10 11 13 13 13 13 14 15 15 13 12 14 15 13 14 19 23 25 26 26 24 23 22 22 23 23
Wind_Direction
314 320 320 319 317 315 319 318 322 335 339 331 327 328 334 333 321 309 307 314 317 320 330 328 320 327 338 340 336 328 323 324 327 330 329 322 317 314 310 303 299 295 290 286 284 283 283 281 279 279 279 279 280 281 282 281 279 276 273 270 269 269 269 269 269 268 267 267 268 269 270 271 271 270
313 318 318 322 325 323 324 320 322 333 331 317 309 310 313 306 293 290 300 303 309 317 324 322 319 322 325 329 329 323 319 319 320 322 322 320 316 311 305 298 297 294 290 286 283 283 283 281 280 279 277 276 275 275 276 278 279 278 275 273 272 271 271 271 271 270 269 268 267 267 268 269 270 270
322 321 315 314 314 314 313 309 310 316 314 308 302 296 293 294 298 304 304 290 295 305 310 309 310 313 314 317 319 317 315 315 317 319 319 318 314 310 305 301 298 294 291 290 288 286 285 284 286 286 284 281 278 274 272 272 274 275 276 275 274 273 272 272 272 272 272 271 270 268 267 268 269 270
321 314 311 308 308 312 314 315 311 303 302 304 305 307 306 303 302 302 298 286 285 292 292 294 300 303 306 310 312 312 314 315 316 316 315 313 310 309 306 302 299 297 296 294 292 289 287 285 287 288 289 288 286 283 278 273 272 272 273 274 275 275 274 273 273 273 273 273 272 270 269 268 268 269
306 303 306 306 306 309 312 314 310 304 305 302 300 306 307 301 296 293 292 289 290 295 293 295 304 310 313 315 315 318 319 317 316 314 312 310 308 308 307 304 302 301 300 300 299 297 294 289 285 285 286 286 285 284 282 279 277 275 274 274 273 273 273 273 274 275 275 275 274 273 271 269 268 268
309 315 316 316 319 317 316 316 314 318 325 325 316 310 305 306 308 308 308 311 313 311 310 314 319 322 324 322 319 319 318 318 317 314 313 313 312 312 312 312 311 307 307 310 312 313 312 305 294 286 284 285 284 283 282 280 279 278 277 276 275 274 273 272 272 273 274 275 275 275 274 272 270 268
314 319 315 316 319 319 319 320 319 320 323 324 319 313 312 317 322 326 330 334 336 329 325 327 326 324 324 322 318 315 314 314 314 314 314 316 316 315 315 314 313 311 312 315 320 325 327 327 321 306 294 289 288 287 285 284 282 281 280 279 278 278 277 275 273 271 270 272 274 275 275 275 274 272
311 312 308 305 310 312 313 315 313 309 309 308 305 309 316 321 323 325 329 334 335 332 327 325 324 320 318 315 311 310 310 312 314 314 314 315 316 317 319 320 318 317 317 318 321 323 322 327 333 327 317 309 302 296 292 289 288 287 286 284 282 280 279 276 273 270 267 267 268 271 272 274 276 276
306 307 308 309 310 311 307 305 301 297 299 301 301 312 322 324 323 323 324 324 324 322 321 319 316 310 305 304 306 308 314 319 320 316 315 318 324 330 331 330 328 327 325 322 321 320 318 320 326 328 325 320 314 307 301 296 292 291 289 287 285 283 281 279 276 273 269 265 264 266 269 271 274 278
304 307 310 313 315 313 306 301 299 299 305 307 307 322 330 327 321 318 318 316 313 313 312 309 306 302 300 304 307 311 316 318 317 319 323 328 334 336 334 332 331 329 327 325 325 325 325 324 324 322 319 317 317 317 313 307 300 296 292 289 287 286 285 283 282 279 274 269 265 265 266 268 271 276
298 301 298 300 305 302 289 289 298 293 297 301 303 328 337 330 323 320 316 310 307 307 307 305 305 305 304 305 307 313 321 322 324 332 336 332 333 335 334 331 329 327 326 327 327 328 326 322 318 315 313 312 310 309 311 311 307 305 301 294 290 290 288 287 285 282 279 274 269 265 264 265 269 275
286 286 285 287 301 306 295 293 299 292 291 293 292 309 327 320 315 315 313 308 306 305 305 306 306 305 304 307 315 326 335 337 336 338 335 329 329 332 330 327 326 325 326 328 327 326 325 322 320 319 316 313 309 303 302 302 301 307 310 304 297 296 296 298 298 293 285 278 274 268 263 261 265 272
283 285 285 276 283 325 331 318 310 307 301 297 295 300 307 303 300 300 300 301 303 302 303 305 305 306 309 318 330 336 340 339 334 332 332 329 328 327 322 320 324 327 327 328 326 325 325 322 321 320 318 317 314 309 304 300 297 301 307 308 306 304 304 306 308 306 298 284 276 272 264 259 262 269
278 280 284 276 270 299 322 317 314 326 331 326 321 317 303 285 283 288 289 291 293 294 298 302 307 311 315 324 331 331 331 333 332 334 334 327 323 323 321 320 325 331 334 333 327 323 325 323 320 319 317 315 314 313 311 308 302 299 299 299 299 298 298 300 302 305 305 295 281 274 265 258 260 269
269 268 275 278 277 286 299 299 302 322 333 329 327 333 315 273 259 266 283 294 295 293 295 301 307 312 314 319 322 322 324 328 331 331 327 323 324 328 326 321 322 328 335 334 326 322 325 325 319 317 316 316 317 317 314 310 305 303 301 297 294 293 292 293 295 299 303 303 294 283 273 267 267 271
267 269 270 271 273 275 275 277 286 297 305 303 296 309 311 287 267 258 255 267 279 276 283 298 302 301 306 313 315 316 319 322 324 323 320 322 326 324 320 315 312 318 326 326 317 315 323 325 317 314 317 319 320 316 310 307 304 303 302 300 301 300 292 287 287 290 293 294 291 286 281 278 275 274
266 263 259 258 259 260 262 265 270 281 299 308 302 300 299 292 282 263 248 251 258 250 252 276 289 290 293 298 299 296 296 301 307 311 310 313 314 311 310 307 305 311 319 315 303 305 318 324 318 315 318 322 321 314 309 312 311 307 306 305 306 304 293 282 280 280 282 284 283 281 278 276 274 274
263 255 251 251 251 254 252 242 238 247 282 307 306 296 289 289 284 266 253 256 256 249 249 258 267 277 282 283 286 286 281 282 285 289 294 296 296 300 305 305 305 310 318 316 305 304 315 323 322 319 320 324 324 316 314 325 331 326 321 318 315 309 296 284 278 274 277 281 283 281 277 274 274 274
251 246 245 245 246 252 245 234 236 246 265 289 299 294 288 289 288 278 276 274 262 251 251 256 264 275 279 276 277 279 275 271 276 282 287 291 296 301 307 309 308 313 322 325 322 315 317 327 329 323 324 329 330 324 335 351 358 354 345 339 334 330 318 303 292 285 287 292 293 290 282 277 277 276
245 242 240 240 238 243 244 243 248 257 274 292 298 293 292 296 297 292 286 281 268 246 256 276 282 279 277 272 270 270 267 265 271 280 287 299 307 307 312 316 315 318 325 332 338 332 328 336 336 328 328 333 335 2 34 29 29 26 21 20 15 7 357 340 323 309 306 310 315 311 299 288 281 273
236 235 236 236 234 235 241 246 252 262 282 297 292 290 295 296 296 297 283 266 265 267 283 296 297 283 278 283 280 273 268 265 265 269 282 303 316 314 318 321 317 319 324 336 349 344 334 335 336 331 330 334 348 50 57 49 49 51 50 51 48 44 38 23 2 343 332 330 334 338 330 302 262 239
228 229 229 223 223 231 240 246 253 267 288 294 280 282 293 292 291 291 264 250 280 290 295 302 303 289 290 296 289 276 267 263 257 259 274 300 311 308 313 315 313 317 322 335 347 340 327 327 333 333 332 334 2 49 52 47 52 60 64 62 59 57 55 50 42 32 22 26 55 73 80 94 115 126
227 227 226 218 217 228 239 248 259 274 288 288 273 267 277 285 285 279 275 283 291 294 296 300 303 300 303 307 302 286 266 259 252 252 276 302 293 287 300 309 312 315 317 327 337 335 322 320 329 334 333 331 353 23 34 43 54 66 68 60 53 53 54 57 58 56 59 77 92 90 87 89 96 100
225 221 219 217 219 228 237 246 257 268 280 287 281 269 264 267 271 272 279 289 295 295 293 294 304 308 308 316 322 313 227 201 211 275 333 315 287 283 304 315 315 307 303 312 322 325 318 313 319 328 327 316 320 350 30 53 57 67 72 62 54 51 53 59 62 62 66 74 81 87 92 93 90 88
227 219 213 212 217 224 229 237 250 264 281 292 288 275 260 256 264 273 282 293 300 296 291 297 307 312 313 325 347 10 85 104 74 24 352 325 303 305 320 326 321 312 313 315 310 306 306 304 308 318 320 317 314 322 28 62 57 61 70 71 67 63 61 65 66 64 66 69 72 79 86 91 89 87
240 227 213 210 214 218 223 233 251 272 291 297 292 282 271 264 266 273 282 297 308 303 300 302 305 311 318 330 356 19 28 32 25 10 356 340 327 325 333 346 347 337 340 339 325 301 295 295 301 312 316 316 317 319 32 70 59 61 69 71 71 69 69 71 71 69 69 69 70 74 78 81 81 83
276 247 207 203 206 208 218 239 263 287 299 300 293 286 277 267 262 262 270 291 303 301 299 297 295 303 320 334 358 9 356 356 19 33 24 3 344 338 340 6 17 2 354 352 345 316 296 293 293 305 311 311 315 326 61 80 63 64 67 66 68 70 72 74 73 73 75 75 75 76 78 79 77 78
281 262 202 192 199 207 228 254 274 292 300 298 290 281 271 258 247 243 257 284 293 289 288 291 297 309 322 329 348 346 330 345 62 40 22 10 356 351 352 8 14 4 358 359 359 347 329 320 302 313 331 339 353 28 76 78 64 65 67 64 63 64 69 74 74 73 76 78 80 81 78 76 75 76
251 255 238 220 219 231 255 268 279 290 294 289 278 265 257 250 238 236 259 281 286 283 287 298 310 319 321 321 333 329 314 318 62 26 18 12 354 358 18 25 22 17 10 9 10 9 355 341 348 39 53 62 66 68 74 71 63 62 67 69 65 60 64 72 75 75 76 77 77 78 77 76 75 75
239 248 249 250 252 259 268 275 282 287 283 272 256 237 232 242 240 239 259 274 279 280 289 305 307 309 316 310 306 313 306 149 63 19 23 29 358 1 28 38 37 37 29 24 26 31 35 51 96 81 74 72 72 72 74 73 67 62 67 76 75 64 60 67 75 78 79 78 76 75 75 76 76 75
233 242 249 255 259 265 270 274 278 278 270 260 249 231 226 238 240 235 249 266 274 269 271 291 300 304 309 299 295 308 307 118 84 39 50 60 21 6 31 46 46 47 43 41 43 46 56 79 99 96 87 79 73 73 76 76 71 65 66 75 82 78 70 72 77 80 82 83 79 75 73 73 73 72
232 240 248 254 256 258 263 266 266 261 253 248 243 233 232 239 238 230 239 255 265 255 247 275 293 293 297 294 294 304 302 120 108 87 72 62 34 13 53 56 37 45 55 58 60 61 66 74 83 91 91 87 82 78 76 75 73 71 73 78 83 84 82 82 82 82 84 85 81 75 72 72 70 70
228 232 235 241 244 243 244 249 250 246 240 238 238 235 234 237 236 229 232 244 252 242 229 257 280 284 291 293 292 299 302 142 131 123 88 70 53 45 83 78 46 33 56 76 78 75 73 74 78 83 87 87 86 84 80 77 76 77 80 83 84 84 87 90 90 87 86 85 82 77 74 72 71 71
216 220 221 222 226 224 223 228 232 233 230 230 232 228 221 221 226 227 228 238 244 236 232 254 270 278 286 291 296 303 306 268 146 137 109 87 79 81 90 90 70 47 46 69 89 86 81 79 78 79 81 81 80 78 79 82 83 80 81 84 87 88 90 91 90 88 86 85 85 82 77 72 71 71
209 218 218 217 222 223 220 222 227 229 225 221 223 219 208 205 213 220 224 229 228 229 245 254 254 264 279 294 307 300 303 310 187 148 130 108 95 102 105 97 86 79 64 52 55 67 80 95 92 83 77 76 74 70 68 75 84 85 82 84 89 91 90 87 86 85 85 84 84 85 82 76 73 72
210 220 224 227 232 231 225 224 228 230 222 214 216 216 208 204 204 203 210 221 223 228 248 248 237 246 266 284 297 281 289 307 304 182 149 136 116 110 112 104 94 92 76 52 50 62 59 102 131 116 91 73 75 66 54 61 79 89 87 87 91 93 92 89 84 81 81 83 85 87 88 85 80 76
211 220 229 236 242 243 237 228 223 221 217 214 219 220 216 210 201 196 210 229 230 224 233 235 225 229 242 247 270 277 284 303 313 310 158 151 146 138 128 113 99 93 83 66 58 79 84 96 119 123 110 90 92 86 58 64 77 90 97 98 98 96 94 92 89 85 83 84 86 90 93 93 89 81
210 219 229 236 244 250 247 229 212 209 211 215 222 223 216 207 203 208 223 237 231 216 226 238 229 218 228 237 250 276 298 311 312 322 347 104 136 147 141 125 110 96 84 75 68 85 106 110 114 120 120 111 105 111 94 73 66 70 88 106 110 107 101 96 95 95 93 93 96 97 98 97 94 87
213 222 231 236 241 247 245 228 212 209 211 213 218 220 215 209 210 216 222 224 217 210 218 238 230 198 204 228 232 251 288 292 290 328 9 33 41 59 108 125 124 113 96 83 79 87 104 115 121 121 119 115 111 110 106 91 70 64 75 97 110 115 116 109 104 106 111 116 117 113 108 103 97 89
219 223 229 234 237 238 234 225 218 216 216 216 215 215 215 210 209 212 214 214 214 211 212 225 225 202 206 227 224 216 266 291 325 57 56 21 19 41 57 94 135 133 120 104 96 96 102 112 119 119 114 111 108 103 97 87 75 70 72 74 81 98 115 122 121 121 126 130 127 123 123 121 112 100
223 223 225 229 235 234 225 218 217 216 216 216 214 212 211 208 207 211 209 203 201 203 209 219 219 211 217 217 192 184 218 299 27 86 99 81 88 83 44 25 106 133 130 124 121 122 124 127 126 121 117 114 110 101 92 83 76 72 70 69 73 83 97 113 123 129 142 154 148 135 132 128 115 106
223 224 224 226 230 232 222 213 213 214 212 212 211 208 205 204 208 209 203 199 201 204 207 212 208 204 206 193 176 184 194 174 103 121 144 140 125 108 41 27 84 122 128 131 136 144 152 148 140 133 131 130 119 104 102 106 106 96 83 76 75 77 81 88 93 100 124 150 162 156 149 140 115 99
220 221 223 224 225 226 220 210 208 210 210 208 207 206 202 204 210 214 211 214 218 210 201 201 202 199 200 195 184 185 182 173 176 184 139 119 133 140 65 41 80 104 111 123 139 154 164 164 162 164 166 167 147 119 120 125 126 120 107 91 81 76 76 81 85 86 91 98 102 108 128 137 122 104
222 215 217 221 222 221 217 210 206 207 208 205 204 205 204 201 204 210 213 213 211 202 195 198 199 194 193 190 186 189 186 177 176 173 150 118 114 128 122 86 89 101 101 102 117 132 143 150 156 155 150 144 130 122 127 133 133 132 129 116 100 85 80 84 87 87 84 81 80 81 89 95 97 99
237 220 212 214 218 216 212 208 205 204 204 205 205 204 203 200 200 202 200 198 198 197 194 193 195 194 193 193 196 199 192 180 168 165 166 160 137 130 138 142 130 126 125 115 109 109 110 110 113 114 111 110 111 114 118 122 126 131 132 124 112 99 89 87 87 86 84 82 81 83 86 88 89 91